sat.trackr.live / text

‹ back to catalog

STARLINK-31165

NORAD 58748 · 2024-005W

PAYLOAD ACTIVE UNKNOWN

§ Identity

Operator
Country
US
Launch date
2024-01-07
Launch site
AFETR
Launch vehicle
Mass (kg)
RCS (m²)

Purposes: comms

External: N2YO · Heavens-Above · Gunter

§ Orbital elements

Epoch: 2026-05-25T01:41:08.039616Z

Period
94.27 min
Inclination
43.0028°
Eccentricity
0.0002032
Mean motion
15.27588110 rev/d
Perigee alt
481.6 km
Apogee alt
484.4 km
Semi-major
6,861.2 km
B*
-2.7476e-4
RAAN
148.5279°
Arg perigee
273.4176°
Mean anomaly
86.6443°
Rev number
13,212

§ Raw data

STARLINK-311651 58748U 24005W   26145.07023194 -.00007818  00000+0 -27476-3 0  99912 58748  43.0028 148.5279 0002032 273.4176  86.6443 15.27588110132122

JSON: /api/v1/satellites/58748 · /tle

For live sub-satellite position, see the globe view (requires WebGL).

§ Visibility from observer

Set your observer location to see the next 7 days of passes ≥ 10°. The values pass through the URL so the page stays shareable.

No JS? Fill the form by hand. The geolocation button needs JavaScript.